Change the Weather History Date:

Monday, October 4, 2010

  Actual Average Record
Temperature  
Mean Temperature 55 °F -  
Max Temperature 64 °F 74 °F 92 °F (1951)
Min Temperature 46 °F 50 °F 31 °F (1974)
Degree Days  
Heating Degree Days 10    
Growing Degree Days 5 (Base 50)    
Moisture  
Dew Point 42 °F    
Average Humidity 68    
Maximum Humidity 93    
Minimum Humidity 39    
Precipitation  
Precipitation 0.00 in - - ()
Sea Level Pressure  
Sea Level Pressure 30.10 in    
Wind  
Wind Speed 5 mph (NW)    
Max Wind Speed 7 mph    
Max Gust Speed -    
Visibility 10 miles    
Events      
Averages and records for this station are not official NWS values.
T = Trace of Precipitation, MM = Missing Value Source: NWS Daily Summary

Daily Weather History Graph

Daily Weather History Graph

Search for Another Location

Airport or City:

Trip Planner

Search our weather history database for the weather conditions in past years. The results will help you decide how hot, cold, wet, or windy it might be!

Date:

Astronomy

Oct. 04, 2010 Rise Set
Actual Time 7:22 AM EDT 7:05 PM EDT
Civil Twilight 6:57 AM EDT 7:30 PM EDT
Nautical Twilight 6:27 AM EDT 8:00 PM EDT
Astronomical Twilight 5:58 AM EDT 8:29 PM EDT
Moon 3:37 AM EDT (10/4) 4:57 PM EDT (10/4)
Length of Visible Light 12h 33m
Length of Day
11h 42m
Waning Crescent, 14% of the Moon is Illuminated
Oct 4
Waning Crescent
Oct 7
New
Oct 14
First Quarter
Oct 22
Full
Oct 30
Last Quarter

Hourly Weather History & Observations

Time (EDT) Temp. Dew Point Humidity Pressure Visibility Wind Dir Wind Speed Gust Speed Precip Events Conditions
12:53 AM 50.0 °F 45.0 °F 83% 30.06 in 10.0 mi North 5.8 mph - 0.00 in   Overcast
1:53 AM 48.9 °F 46.0 °F 90% 30.07 in 10.0 mi North 5.8 mph - N/A   Overcast
2:53 AM 50.0 °F 46.0 °F 86% 30.07 in 10.0 mi NW 3.5 mph - N/A   Overcast
3:53 AM 48.0 °F 45.0 °F 89% 30.05 in 10.0 mi Calm Calm - N/A   Clear
4:53 AM 48.9 °F 45.0 °F 86% 30.06 in 10.0 mi North 3.5 mph - N/A   Overcast
5:53 AM 48.0 °F 45.0 °F 89% 30.07 in 10.0 mi WNW 5.8 mph - N/A   Mostly Cloudy
6:53 AM 46.9 °F 45.0 °F 93% 30.09 in 10.0 mi NNW 4.6 mph - N/A   Mostly Cloudy
7:53 AM 46.9 °F 44.1 °F 90% 30.10 in 10.0 mi NW 6.9 mph - N/A   Overcast
8:53 AM 48.0 °F 44.1 °F 86% 30.12 in 10.0 mi WNW 6.9 mph - N/A   Overcast
9:53 AM 51.1 °F 43.0 °F 74% 30.14 in 10.0 mi WNW 6.9 mph - N/A   Overcast
10:53 AM 54.0 °F 42.1 °F 64% 30.14 in 10.0 mi WNW 6.9 mph - N/A   Mostly Cloudy
11:53 AM 57.9 °F 42.1 °F 56% 30.14 in 10.0 mi WNW 3.5 mph - N/A   Mostly Cloudy
12:53 PM 61.0 °F 42.1 °F 50% 30.12 in 10.0 mi ESE 4.6 mph - N/A   Overcast
1:53 PM 60.1 °F 39.9 °F 47% 30.10 in 10.0 mi Calm Calm - N/A   Mostly Cloudy
2:53 PM 63.0 °F 41.0 °F 45% 30.08 in 10.0 mi North 5.8 mph - N/A   Mostly Cloudy
3:53 PM 64.0 °F 39.0 °F 40% 30.07 in 10.0 mi WNW 6.9 mph - N/A   Mostly Cloudy
4:53 PM 62.1 °F 37.0 °F 39% 30.08 in 10.0 mi NW 6.9 mph - N/A   Mostly Cloudy
5:53 PM 60.1 °F 37.9 °F 44% 30.09 in 10.0 mi NNW 4.6 mph - N/A   Mostly Cloudy
6:53 PM 57.0 °F 37.0 °F 47% 30.11 in 10.0 mi North 4.6 mph - N/A   Partly Cloudy
7:53 PM 54.0 °F 37.0 °F 53% 30.12 in 10.0 mi WNW 5.8 mph - N/A   Clear
8:53 PM 52.0 °F 39.0 °F 61% 30.14 in 10.0 mi WNW 4.6 mph - N/A   Scattered Clouds
9:53 PM 48.9 °F 39.9 °F 71% 30.16 in 10.0 mi WNW 4.6 mph - N/A   Clear
10:53 PM 48.0 °F 39.0 °F 71% 30.16 in 10.0 mi WNW 4.6 mph - N/A   Clear
11:53 PM 48.0 °F 39.9 °F 74% 30.16 in 10.0 mi WNW 5.8 mph - N/A   Clear